Time,TemperatureF,DewpointF,PressureIn,WindDirection,WindDirectionDegrees,WindSpeedMPH,WindSpeedGustMPH,Humidity,HourlyPrecipIn,Conditions,Clouds,dailyrainin,SoftwareType,DateUTC
2013-12-22 00:04:00,42.3,41.0,29.62,West,266,4.0,-999.0,96,-99.99,,,0.00,weatherlink.com 1.10,2013-12-22 06:04:00,
2013-12-22 00:19:00,41.9,41.0,29.62,WSW,253,8.0,-999.0,96,-99.99,,,0.00,weatherlink.com 1.10,2013-12-22 06:19:00,
2013-12-22 00:34:00,41.5,41.0,29.65,West,261,5.0,-999.0,96,-99.99,,,0.00,weatherlink.com 1.10,2013-12-22 06:34:00,
2013-12-22 00:49:00,41.5,41.0,29.66,WSW,242,3.0,-999.0,96,-99.99,,,0.00,weatherlink.com 1.10,2013-12-22 06:49:00,
2013-12-22 01:04:00,41.4,40.0,29.65,West,280,4.0,-999.0,96,-99.99,,,0.00,weatherlink.com 1.10,2013-12-22 07:04:00,
2013-12-22 01:19:00,41.3,41.0,29.66,WSW,248,7.0,-999.0,97,-99.99,,,0.00,weatherlink.com 1.10,2013-12-22 07:19:00,
2013-12-22 01:34:00,41.4,40.0,29.68,SW,225,4.0,-999.0,96,-99.99,,,0.00,weatherlink.com 1.10,2013-12-22 07:34:00,
2013-12-22 01:49:00,41.2,40.0,29.68,West,263,4.0,-999.0,97,-99.99,,,0.00,weatherlink.com 1.10,2013-12-22 07:49:00,
2013-12-22 02:04:00,41.1,40.0,29.69,SW,227,8.0,-999.0,97,-99.99,,,0.00,weatherlink.com 1.10,2013-12-22 08:04:00,
2013-12-22 02:19:00,41.1,40.0,29.70,West,272,5.0,-999.0,97,-99.99,,,0.00,weatherlink.com 1.10,2013-12-22 08:19:00,
2013-12-22 02:34:00,40.8,40.0,29.70,WSW,249,5.0,-999.0,97,-99.99,,,0.00,weatherlink.com 1.10,2013-12-22 08:34:00,
2013-12-22 02:49:00,40.6,40.0,29.70,West,259,4.0,-999.0,97,-99.99,,,0.00,weatherlink.com 1.10,2013-12-22 08:49:00,
2013-12-22 03:04:00,40.6,40.0,29.72,WSW,244,3.0,-999.0,97,-99.99,,,0.00,weatherlink.com 1.10,2013-12-22 09:04:00,
2013-12-22 03:19:00,40.9,40.0,29.72,WSW,254,1.0,-999.0,97,-99.99,,,0.00,weatherlink.com 1.10,2013-12-22 09:19:00,
2013-12-22 03:34:00,41.1,40.0,29.72,SW,230,8.0,-999.0,97,-99.99,,,0.00,weatherlink.com 1.10,2013-12-22 09:34:00,
2013-12-22 03:49:00,41.4,41.0,29.72,SW,234,10.0,-999.0,97,-99.99,,,0.00,weatherlink.com 1.10,2013-12-22 09:49:00,
2013-12-22 04:04:00,41.6,41.0,29.73,SW,216,6.0,-999.0,97,-99.99,,,0.00,weatherlink.com 1.10,2013-12-22 10:04:00,
2013-12-22 04:19:00,42.0,41.0,29.74,SW,232,4.0,-999.0,97,-99.99,,,0.00,weatherlink.com 1.10,2013-12-22 10:19:00,
2013-12-22 04:34:00,42.4,42.0,29.75,SSW,205,5.0,-999.0,97,-99.99,,,0.00,weatherlink.com 1.10,2013-12-22 10:34:00,
2013-12-22 04:49:00,43.1,42.0,29.75,SW,218,1.0,-999.0,97,-99.99,,,0.00,weatherlink.com 1.10,2013-12-22 10:49:00,
2013-12-22 05:04:00,43.7,43.0,29.75,SSW,194,2.0,-999.0,97,-99.99,,,0.00,weatherlink.com 1.10,2013-12-22 11:04:00,
2013-12-22 05:19:00,44.1,43.0,29.76,South,188,1.0,-999.0,97,-99.99,,,0.00,weatherlink.com 1.10,2013-12-22 11:19:00,
2013-12-22 05:34:00,45.0,44.0,29.76,SSW,193,2.0,-999.0,97,-99.99,,,0.00,weatherlink.com 1.10,2013-12-22 11:34:00,
2013-12-22 05:49:00,45.7,45.0,29.78,South,189,1.0,-999.0,98,-99.99,,,0.00,weatherlink.com 1.10,2013-12-22 11:49:00,
2013-12-22 06:04:00,46.4,46.0,29.78,South,176,4.0,-999.0,98,-99.99,,,0.00,weatherlink.com 1.10,2013-12-22 12:04:00,
2013-12-22 06:19:00,46.8,46.0,29.79,SSW,205,6.0,-999.0,98,-99.99,,,0.00,weatherlink.com 1.10,2013-12-22 12:19:00,
2013-12-22 06:34:00,47.1,47.0,29.80,SSW,193,9.0,-999.0,98,-99.99,,,0.00,weatherlink.com 1.10,2013-12-22 12:34:00,
2013-12-22 06:49:00,47.4,47.0,29.79,SSW,202,7.0,-999.0,98,-99.99,,,0.00,weatherlink.com 1.10,2013-12-22 12:49:00,
2013-12-22 07:04:00,47.7,47.0,29.80,SW,219,9.0,-999.0,98,-99.99,,,0.00,weatherlink.com 1.10,2013-12-22 13:04:00,
2013-12-22 07:19:00,48.1,48.0,29.82,SW,219,5.0,-999.0,98,-99.99,,,0.00,weatherlink.com 1.10,2013-12-22 13:19:00,
2013-12-22 07:34:00,48.5,48.0,29.81,WSW,254,9.0,-999.0,98,-99.99,,,0.00,weatherlink.com 1.10,2013-12-22 13:34:00,
2013-12-22 07:49:00,48.8,48.0,29.81,SW,236,5.0,-999.0,97,-99.99,,,0.00,weatherlink.com 1.10,2013-12-22 13:49:00,
2013-12-22 08:04:00,49.2,48.0,29.82,SW,236,5.0,-999.0,97,-99.99,,,0.00,weatherlink.com 1.10,2013-12-22 14:04:00,
2013-12-22 08:19:00,49.6,49.0,29.83,South,185,4.0,-999.0,96,-99.99,,,0.00,weatherlink.com 1.10,2013-12-22 14:19:00,
2013-12-22 08:34:00,49.7,49.0,29.84,WSW,252,7.0,-999.0,96,-99.99,,,0.00,weatherlink.com 1.10,2013-12-22 14:34:00,
2013-12-22 08:49:00,49.7,48.0,29.84,SW,234,3.0,-999.0,95,-99.99,,,0.00,weatherlink.com 1.10,2013-12-22 14:49:00,
2013-12-22 09:04:00,49.8,49.0,29.85,SW,222,4.0,-999.0,95,-99.99,,,0.00,weatherlink.com 1.10,2013-12-22 15:04:00,
2013-12-22 09:19:00,50.1,49.0,29.85,WSW,238,7.0,-999.0,94,-99.99,,,0.00,weatherlink.com 1.10,2013-12-22 15:19:00,
2013-12-22 09:34:00,50.4,49.0,29.86,SW,217,15.0,-999.0,93,-99.99,,,0.00,weatherlink.com 1.10,2013-12-22 15:34:00,
2013-12-22 09:49:00,50.3,48.0,29.87,SW,226,2.0,-999.0,93,-99.99,,,0.00,weatherlink.com 1.10,2013-12-22 15:49:00,
2013-12-22 10:19:00,49.2,47.0,29.90,WNW,294,4.0,-999.0,90,-99.99,,,0.00,weatherlink.com 1.10,2013-12-22 16:19:00,
2013-12-22 10:34:00,47.4,46.0,29.91,WNW,283,0.0,-999.0,93,-99.99,,,0.00,weatherlink.com 1.10,2013-12-22 16:34:00,
2013-12-22 10:49:00,47.1,45.0,29.91,WSW,246,0.0,-999.0,93,-99.99,,,0.00,weatherlink.com 1.10,2013-12-22 16:49:00,
2013-12-22 11:04:00,47.3,46.0,29.90,West,260,0.0,-999.0,94,-99.99,,,0.00,weatherlink.com 1.10,2013-12-22 17:04:00,
2013-12-22 11:19:00,47.6,46.0,29.89,WSW,244,0.0,-999.0,93,-99.99,,,0.00,weatherlink.com 1.10,2013-12-22 17:19:00,
2013-12-22 11:34:00,47.9,46.0,29.89,West,267,6.0,-999.0,93,-99.99,,,0.00,weatherlink.com 1.10,2013-12-22 17:34:00,
2013-12-22 11:49:00,47.8,46.0,29.90,WSW,257,3.0,-999.0,92,-99.99,,,0.00,weatherlink.com 1.10,2013-12-22 17:49:00,
2013-12-22 12:04:00,47.8,45.0,29.89,WSW,256,0.0,-999.0,91,-99.99,,,0.00,weatherlink.com 1.10,2013-12-22 18:04:00,
2013-12-22 12:19:00,47.6,45.0,29.89,West,259,4.0,-999.0,90,-99.99,,,0.00,weatherlink.com 1.10,2013-12-22 18:19:00,
2013-12-22 12:34:00,47.4,45.0,29.90,WSW,250,0.0,-999.0,90,-99.99,,,0.00,weatherlink.com 1.10,2013-12-22 18:34:00,
2013-12-22 12:49:00,47.3,45.0,29.89,WSW,250,0.0,-999.0,90,-99.99,,,0.00,weatherlink.com 1.10,2013-12-22 18:49:00,
2013-12-22 13:03:00,47.3,45.0,29.91,West,280,0.0,-999.0,90,-99.99,,,0.00,weatherlink.com 1.10,2013-12-22 19:03:00,
2013-12-22 13:18:00,47.0,45.0,29.91,WSW,252,0.0,-999.0,91,-99.99,,,0.00,weatherlink.com 1.10,2013-12-22 19:18:00,
2013-12-22 13:34:00,46.8,44.0,29.90,WNW,295,0.0,-999.0,91,-99.99,,,0.00,weatherlink.com 1.10,2013-12-22 19:34:00,
2013-12-22 13:49:00,46.5,44.0,29.91,West,264,3.0,-999.0,92,-99.99,,,0.00,weatherlink.com 1.10,2013-12-22 19:49:00,
2013-12-22 14:04:00,46.3,44.0,29.91,West,263,3.0,-999.0,92,-99.99,,,0.00,weatherlink.com 1.10,2013-12-22 20:04:00,
2013-12-22 14:19:00,46.1,44.0,29.92,West,262,5.0,-999.0,92,-99.99,,,0.00,weatherlink.com 1.10,2013-12-22 20:19:00,
2013-12-22 14:34:00,46.0,44.0,29.92,WNW,288,0.0,-999.0,93,-99.99,,,0.00,weatherlink.com 1.10,2013-12-22 20:34:00,
2013-12-22 14:49:00,45.5,44.0,29.91,NW,304,3.0,-999.0,93,-99.99,,,0.00,weatherlink.com 1.10,2013-12-22 20:49:00,
2013-12-22 15:04:00,44.4,43.0,29.93,West,275,4.0,-999.0,94,-99.99,,,0.00,weatherlink.com 1.10,2013-12-22 21:04:00,
2013-12-22 15:19:00,42.4,41.0,29.93,WNW,298,3.0,-999.0,93,-99.99,,,0.00,weatherlink.com 1.10,2013-12-22 21:19:00,
2013-12-22 15:34:00,42.2,41.0,29.95,West,278,0.0,-999.0,94,-99.99,,,0.00,weatherlink.com 1.10,2013-12-22 21:34:00,
2013-12-22 15:49:00,42.2,40.0,29.96,WNW,284,0.0,-999.0,93,-99.99,,,0.00,weatherlink.com 1.10,2013-12-22 21:49:00,
2013-12-22 16:04:00,42.1,40.0,29.97,WNW,288,0.0,-999.0,93,-99.99,,,0.00,weatherlink.com 1.10,2013-12-22 22:04:00,
2013-12-22 16:19:00,42.1,40.0,29.98,West,279,0.0,-999.0,93,-99.99,,,0.00,weatherlink.com 1.10,2013-12-22 22:19:00,
2013-12-22 16:34:00,42.0,40.0,29.99,WNW,283,0.0,-999.0,93,-99.99,,,0.00,weatherlink.com 1.10,2013-12-22 22:34:00,
2013-12-22 16:49:00,42.0,40.0,29.98,WNW,283,0.0,-999.0,94,-99.99,,,0.00,weatherlink.com 1.10,2013-12-22 22:49:00,
2013-12-22 17:04:00,42.0,40.0,30.00,WNW,298,0.0,-999.0,94,-99.99,,,0.00,weatherlink.com 1.10,2013-12-22 23:04:00,
2013-12-22 17:19:00,42.0,41.0,30.00,WNW,291,0.0,-999.0,95,-99.99,,,0.00,weatherlink.com 1.10,2013-12-22 23:19:00,
2013-12-22 17:34:00,41.7,40.0,30.01,NW,305,0.0,-999.0,94,-99.99,,,0.00,weatherlink.com 1.10,2013-12-22 23:34:00,
2013-12-22 17:49:00,41.0,39.0,30.02,NW,317,0.0,-999.0,94,-99.99,,,0.00,weatherlink.com 1.10,2013-12-22 23:49:00,
2013-12-22 18:04:00,40.8,39.0,30.02,NW,307,0.0,-999.0,94,-99.99,,,0.00,weatherlink.com 1.10,2013-12-23 00:04:00,
2013-12-22 18:19:00,40.9,39.0,30.03,NW,307,0.0,-999.0,94,-99.99,,,0.00,weatherlink.com 1.10,2013-12-23 00:19:00,
2013-12-22 18:34:00,40.9,39.0,30.03,NW,308,0.0,-999.0,94,-99.99,,,0.00,weatherlink.com 1.10,2013-12-23 00:34:00,
2013-12-22 18:49:00,40.5,39.0,30.04,NW,321,7.0,-999.0,93,-99.99,,,0.00,weatherlink.com 1.10,2013-12-23 00:49:00,
2013-12-22 19:04:00,38.6,37.0,30.06,NW,319,0.0,-999.0,92,-99.99,,,0.00,weatherlink.com 1.10,2013-12-23 01:04:00,
2013-12-22 19:19:00,38.1,36.0,30.06,NNW,333,7.0,-999.0,91,-99.99,,,0.00,weatherlink.com 1.10,2013-12-23 01:19:00,
2013-12-22 19:34:00,37.9,35.0,30.07,NNW,335,0.0,-999.0,89,-99.99,,,0.00,weatherlink.com 1.10,2013-12-23 01:34:00,
2013-12-22 19:49:00,37.5,34.0,30.08,NNW,330,8.0,-999.0,88,-99.99,,,0.00,weatherlink.com 1.10,2013-12-23 01:49:00,
2013-12-22 20:04:00,37.2,34.0,30.08,NNW,344,10.0,-999.0,87,-99.99,,,0.00,weatherlink.com 1.10,2013-12-23 02:04:00,
2013-12-22 20:19:00,37.0,34.0,30.09,NW,321,5.0,-999.0,87,-99.99,,,0.00,weatherlink.com 1.10,2013-12-23 02:19:00,
2013-12-22 20:49:00,36.9,34.0,30.10,WNW,301,0.0,-999.0,88,-99.99,,,0.00,weatherlink.com 1.10,2013-12-23 02:49:00,
2013-12-22 21:03:00,36.6,33.0,30.11,NW,310,0.0,-999.0,88,-99.99,,,0.00,weatherlink.com 1.10,2013-12-23 03:03:00,
2013-12-22 21:18:00,36.2,33.0,30.12,NW,321,0.0,-999.0,87,-99.99,,,0.00,weatherlink.com 1.10,2013-12-23 03:18:00,
2013-12-22 21:34:00,36.1,33.0,30.12,WNW,300,2.0,-999.0,87,-99.99,,,0.00,weatherlink.com 1.10,2013-12-23 03:34:00,
2013-12-22 21:49:00,35.8,32.0,30.13,NW,323,3.0,-999.0,87,-99.99,,,0.00,weatherlink.com 1.10,2013-12-23 03:49:00,
2013-12-22 22:04:00,35.7,32.0,30.14,NW,325,2.0,-999.0,87,-99.99,,,0.00,weatherlink.com 1.10,2013-12-23 04:04:00,
2013-12-22 22:19:00,35.4,32.0,30.15,NW,325,3.0,-999.0,87,-99.99,,,0.00,weatherlink.com 1.10,2013-12-23 04:19:00,
2013-12-22 22:34:00,35.3,32.0,30.16,NW,322,4.0,-999.0,87,-99.99,,,0.00,weatherlink.com 1.10,2013-12-23 04:34:00,
2013-12-22 22:49:00,35.2,32.0,30.16,NNW,327,4.0,-999.0,88,-99.99,,,0.00,weatherlink.com 1.10,2013-12-23 04:49:00,
2013-12-22 23:04:00,35.2,32.0,30.17,NW,322,0.0,-999.0,88,-99.99,,,0.00,weatherlink.com 1.10,2013-12-23 05:04:00,
2013-12-22 23:19:00,35.1,32.0,30.18,NNW,327,3.0,-999.0,88,-99.99,,,0.00,weatherlink.com 1.10,2013-12-23 05:19:00,
2013-12-22 23:34:00,35.1,32.0,30.19,NW,315,4.0,-999.0,88,-99.99,,,0.00,weatherlink.com 1.10,2013-12-23 05:34:00,
2013-12-22 23:48:00,35.1,32.0,30.19,NNW,328,0.0,-999.0,88,-99.99,,,0.00,weatherlink.com 1.10,2013-12-23 05:48:00,